Terminal Aerodrome Forecast
Issued by NWS Blacksburg, VA

Home | Current Version | Previous Version | Text Only | Print | Product List | Glossary On
Versions: 1 2 3 4 5 6 7 8 9 10 11 12 13 14 15 16 17 18 19 20 21 22 23 24 25 26 27 28 29 30 31 32 33 34 35 36 37 38 39 40 41 42 43 44
000
FTUS41 KRNK 100956 AAA
TAFBLF
TAF AMD
KBLF 100956Z 1010/1106 26005KT P6SM SCT080
     FM101400 VRB03KT P6SM SCT025 BKN100
     FM101700 22004KT P6SM VCSH BKN040
     FM110000 VRB03KT P6SM SCT035 BKN100=

USA.gov is the U.S. government's official web portal to all federal, state and local government web resources and services.